• In Portugal
  • List of Countries
  • For 7 days
  • Water Temperature
  • Satellite Maps
  • Weather Map
  • Weather Widgets
  • user-avatar
    Login

    Hourly Weather Windhuk

    Today, 18 September, Tuesday

    Time Temperature Precipitation Wind Pressure Humidity
    00:00 +18°C° 0 mm 2 mps 622 mmHg 7%
    01:00 +18°C° 0 mm 1 mps 622 mmHg 8%
    02:00 +16°C° 0 mm 1 mps 621 mmHg 9%
    03:00 +15°C° 0 mm 1 mps 621 mmHg 9%
    04:00 +15°C° 0 mm 1 mps 620 mmHg 9%
    05:00 +16°C° 0 mm 1 mps 621 mmHg 9%
    06:00 +19°C° 0 mm 1 mps 622 mmHg 9%
    07:00 +21°C° 0 mm 1 mps 624 mmHg 6%
    08:00 +23°C° 0 mm 1 mps 624 mmHg 5%
    09:00 +25°C° 0 mm 2 mps 625 mmHg 5%
    10:00 +27°C° 0 mm 3 mps 625 mmHg 4%
    11:00 +29°C° 0 mm 4 mps 625 mmHg 4%
    12:00 +30°C° 0 mm 6 mps 625 mmHg 5%
    13:00 +32°C° 0 mm 7 mps 625 mmHg 5%
    14:00 +32°C° 0 mm 7 mps 625 mmHg 5%
    15:00 +30°C° 0 mm 7 mps 625 mmHg 5%
    16:00 +30°C° 0 mm 7 mps 624 mmHg 6%
    17:00 +27°C° 0 mm 6 mps 624 mmHg 6%
    18:00 +25°C° 0 mm 5 mps 624 mmHg 7%
    19:00 +22°C° 0 mm 4 mps 624 mmHg 8%
    20:00 +21°C° 0 mm 4 mps 624 mmHg 8%
    21:00 +20°C° 0 mm 3 mps 624 mmHg 9%
    22:00 +19°C° 0 mm 3 mps 624 mmHg 9%
    23:00 +18°C° 0 mm 2 mps 624 mmHg 10%

    Tomorrow, 19 September, Wednesday

    Time Temperature Precipitation Wind Pressure Humidity
    00:00 +17°C° 0 mm 2 mps 623 mmHg 11%
    01:00 +17°C° 0 mm 2 mps 623 mmHg 11%
    02:00 +16°C° 0 mm 2 mps 623 mmHg 12%
    03:00 +15°C° 0 mm 2 mps 622 mmHg 13%
    04:00 +15°C° 0 mm 1 mps 622 mmHg 14%
    05:00 +16°C° 0 mm 1 mps 623 mmHg 13%
    06:00 +18°C° 0 mm 1 mps 623 mmHg 12%
    07:00 +18°C° 0 mm 2 mps 624 mmHg 11%
    08:00 +20°C° 0 mm 2 mps 625 mmHg 10%
    09:00 +23°C° 0 mm 2 mps 625 mmHg 9%
    10:00 +25°C° 0 mm 2 mps 626 mmHg 8%
    11:00 +27°C° 0 mm 2 mps 626 mmHg 8%
    12:00 +28°C° 0 mm 2 mps 626 mmHg 7%
    13:00 +29°C° 0 mm 3 mps 626 mmHg 7%
    14:00 +29°C° 0 mm 3 mps 626 mmHg 7%
    15:00 +30°C° 0 mm 4 mps 625 mmHg 7%
    16:00 +30°C° 0 mm 4 mps 625 mmHg 7%
    17:00 +28°C° 0 mm 4 mps 625 mmHg 8%
    18:00 +26°C° 0 mm 4 mps 625 mmHg 9%
    19:00 +22°C° 0 mm 4 mps 624 mmHg 10%
    20:00 +21°C° 0 mm 4 mps 625 mmHg 12%
    21:00 +20°C° 0 mm 5 mps 625 mmHg 14%
    22:00 +19°C° 0 mm 5 mps 625 mmHg 16%
    23:00 +17°C° 0 mm 5 mps 625 mmHg 18%

    Day after tomorrow, 20 September, Thursday

    Time Temperature Precipitation Wind Pressure Humidity
    00:00 +17°C° 0 mm 4 mps 624 mmHg 20%
    01:00 +15°C° 0 mm 4 mps 624 mmHg 22%
    02:00 +14°C° 0 mm 3 mps 623 mmHg 25%
    03:00 +13°C° 0 mm 3 mps 623 mmHg 27%
    04:00 +12°C° 0 mm 3 mps 622 mmHg 29%
    05:00 +13°C° 0 mm 3 mps 623 mmHg 29%
    06:00 +13°C° 0 mm 3 mps 623 mmHg 29%
    07:00 +14°C° 0 mm 3 mps 624 mmHg 29%
    08:00 +18°C° 0 mm 3 mps 625 mmHg 24%
    09:00 +21°C° 0 mm 3 mps 625 mmHg 20%
    10:00 +25°C° 0 mm 3 mps 626 mmHg 15%
    11:00 +27°C° 0 mm 4 mps 626 mmHg 13%
    12:00 +29°C° 0 mm 4 mps 625 mmHg 11%
    13:00 +32°C° 0 mm 4 mps 625 mmHg 9%
    14:00 +32°C° 0 mm 4 mps 625 mmHg 9%
    15:00 +32°C° 0 mm 4 mps 624 mmHg 8%
    16:00 +33°C° 0 mm 4 mps 624 mmHg 8%
    17:00 +30°C° 0 mm 3 mps 623 mmHg 9%
    18:00 +28°C° 0 mm 2 mps 623 mmHg 11%
    19:00 +26°C° 0 mm 2 mps 623 mmHg 12%
    20:00 +25°C° 0 mm 2 mps 623 mmHg 13%
    21:00 +24°C° 0 mm 2 mps 623 mmHg 14%
    22:00 +23°C° 0 mm 2 mps 623 mmHg 15%
    23:00 +21°C° 0 mm 2 mps 623 mmHg 16%

    21 September, Friday

    Time Temperature Precipitation Wind Pressure Humidity
    00:00 +20°C° 0 mm 2 mps 622 mmHg 17%
    01:00 +20°C° 0 mm 1 mps 622 mmHg 18%
    02:00 +20°C° 0 mm 1 mps 622 mmHg 18%
    03:00 +20°C° 0 mm 1 mps 621 mmHg 19%
    04:00 +19°C° 0 mm 1 mps 621 mmHg 19%
    05:00 +19°C° 0 mm 2 mps 622 mmHg 18%
    06:00 +20°C° 0 mm 2 mps 623 mmHg 17%
    07:00 +21°C° 0 mm 2 mps 624 mmHg 16%
    08:00 +25°C° 0 mm 4 mps 624 mmHg 14%
    09:00 +27°C° 0 mm 6 mps 625 mmHg 12%
    10:00 +30°C° 0 mm 7 mps 626 mmHg 9%
    11:00 +32°C° 0 mm 8 mps 625 mmHg 9%
    12:00 +34°C° 0 mm 9 mps 625 mmHg 8%
    13:00 +35°C° 0 mm 9 mps 624 mmHg 7%
    14:00 +35°C° 0 mm 8 mps 624 mmHg 7%
    15:00 +35°C° 0 mm 8 mps 624 mmHg 7%
    16:00 +34°C° 0 mm 7 mps 623 mmHg 8%
    17:00 +32°C° 0 mm 6 mps 623 mmHg 9%
    18:00 +29°C° 0 mm 5 mps 623 mmHg 11%
    19:00 +27°C° 0 mm 4 mps 623 mmHg 13%
    20:00 +26°C° 0 mm 3 mps 623 mmHg 15%
    21:00 +25°C° 0 mm 2 mps 623 mmHg 17%
    22:00 +24°C° 0 mm 1 mps 623 mmHg 18%
    23:00 +23°C° 0 mm 1 mps 622 mmHg 19%

    22 September, Saturday

    Time Temperature Precipitation Wind Pressure Humidity
    00:00 +22°C° 0 mm 1 mps 622 mmHg 20%
    01:00 +22°C° 0 mm 1 mps 622 mmHg 21%
    02:00 +21°C° 0 mm 1 mps 621 mmHg 22%
    03:00 +20°C° 0 mm 1 mps 621 mmHg 22%
    04:00 +20°C° 0 mm 1 mps 621 mmHg 23%
    05:00 +21°C° 0 mm 1 mps 622 mmHg 21%
    06:00 +23°C° 0 mm 1 mps 623 mmHg 20%
    07:00 +24°C° 0 mm 1 mps 624 mmHg 18%
    08:00 +26°C° 0 mm 2 mps 624 mmHg 16%
    09:00 +28°C° 0 mm 4 mps 625 mmHg 14%
    10:00 +30°C° 0 mm 5 mps 625 mmHg 12%
    11:00 +32°C° 0 mm 6 mps 625 mmHg 11%
    12:00 +33°C° 0 mm 7 mps 625 mmHg 10%
    13:00 +34°C° 0 mm 8 mps 624 mmHg 9%
    14:00 +34°C° 0 mm 8 mps 624 mmHg 9%
    15:00 +33°C° 0 mm 7 mps 624 mmHg 10%
    16:00 +33°C° 0 mm 7 mps 624 mmHg 10%
    17:00 +30°C° 0 mm 6 mps 623 mmHg 12%
    18:00 +28°C° 0 mm 6 mps 623 mmHg 14%
    19:00 +25°C° 0 mm 5 mps 623 mmHg 16%
    20:00 +23°C° 0 mm 4 mps 623 mmHg 17%
    21:00 +22°C° 0 mm 3 mps 623 mmHg 18%
    22:00 +21°C° 0 mm 2 mps 623 mmHg 20%
    23:00 +21°C° 0 mm 2 mps 623 mmHg 20%

    23 September, Sunday

    Time Temperature Precipitation Wind Pressure Humidity
    00:00 +22°C° 0 mm 1 mps 623 mmHg 20%
    01:00 +21°C° 0 mm 1 mps 623 mmHg 21%
    02:00 +21°C° 0 mm 1 mps 623 mmHg 21%
    03:00 +21°C° 0 mm 1 mps 622 mmHg 21%
    04:00 +19°C° 0 mm 2 mps 622 mmHg 21%
    05:00 +20°C° 0 mm 2 mps 623 mmHg 20%
    06:00 +21°C° 0 mm 2 mps 624 mmHg 18%
    07:00 +23°C° 0 mm 2 mps 624 mmHg 17%
    08:00 +25°C° 0 mm 2 mps 625 mmHg 15%
    09:00 +27°C° 0 mm 2 mps 625 mmHg 13%
    10:00 +29°C° 0 mm 2 mps 625 mmHg 11%
    11:00 +30°C° 0 mm 2 mps 625 mmHg 11%
    12:00 +31°C° 0 mm 2 mps 624 mmHg 11%
    13:00 +32°C° 0 mm 2 mps 624 mmHg 11%
    14:00 +33°C° 0 mm 3 mps 624 mmHg 11%
    15:00 +33°C° 0 mm 3 mps 623 mmHg 12%
    16:00 +33°C° 0 mm 4 mps 623 mmHg 12%
    17:00 +30°C° 0 mm 4 mps 623 mmHg 13%
    18:00 +29°C° 0 mm 4 mps 623 mmHg 15%
    19:00 +27°C° 0 mm 4 mps 623 mmHg 16%
    20:00 +26°C° 0 mm 3 mps 623 mmHg 18%
    21:00 +25°C° 0 mm 2 mps 623 mmHg 19%
    22:00 +24°C° 0 mm 1 mps 623 mmHg 21%
    23:00 +24°C° 0.1 mm 2 mps 623 mmHg 23%
    Show more